Year,Month,Day,Hour,Minute,Value (Times are PST for temperature in C)
2023,04,26,09,09,8.40
2023,04,26,09,10,8.40
2023,04,26,09,11,8.50
2023,04,26,09,12,8.50
2023,04,26,09,13,8.50
2023,04,26,09,14,8.50
2023,04,26,09,15,8.50
2023,04,26,09,16,8.60
2023,04,26,09,17,8.60
2023,04,26,09,18,8.60
2023,04,26,09,19,8.70
2023,04,26,09,20,8.70
2023,04,26,09,21,8.70
2023,04,26,09,22,8.70
2023,04,26,09,23,8.70
2023,04,26,09,24,8.70
2023,04,26,09,25,8.70
2023,04,26,09,26,8.70
2023,04,26,09,27,8.70
2023,04,26,09,28,8.70
2023,04,26,09,29,8.60
2023,04,26,09,30,8.60
2023,04,26,09,31,8.60
2023,04,26,09,32,8.60
2023,04,26,09,33,8.60
2023,04,26,09,34,8.70
2023,04,26,09,35,8.70
2023,04,26,09,36,8.70
2023,04,26,09,37,8.80
2023,04,26,09,38,8.80
2023,04,26,09,39,8.90
2023,04,26,09,40,8.90
2023,04,26,09,41,9.00
2023,04,26,09,42,9.00
2023,04,26,09,43,9.00
2023,04,26,09,44,9.10
2023,04,26,09,45,9.10
2023,04,26,09,46,9.20
2023,04,26,09,47,9.20
2023,04,26,09,48,9.20
2023,04,26,09,49,9.20
2023,04,26,09,50,9.20
2023,04,26,09,51,9.20
2023,04,26,09,52,9.20
2023,04,26,09,53,9.20
2023,04,26,09,54,9.20
2023,04,26,09,55,9.20
2023,04,26,09,56,9.20
2023,04,26,09,57,9.20
2023,04,26,09,58,9.20
2023,04,26,09,59,9.20
2023,04,26,10,00,9.20
2023,04,26,10,01,9.20
2023,04,26,10,02,9.20
2023,04,26,10,03,9.20
2023,04,26,10,04,9.20
2023,04,26,10,05,9.30
2023,04,26,10,06,9.30
2023,04,26,10,07,9.30
2023,04,26,10,08,9.30
2023,04,26,10,09,9.30
2023,04,26,10,10,9.30
2023,04,26,10,11,9.30
2023,04,26,10,12,9.30
2023,04,26,10,13,9.40
2023,04,26,10,14,9.30
2023,04,26,10,15,9.30
2023,04,26,10,16,9.30
2023,04,26,10,17,9.30
2023,04,26,10,18,9.30
2023,04,26,10,19,9.20
2023,04,26,10,20,9.20
2023,04,26,10,21,9.20
2023,04,26,10,22,9.10
2023,04,26,10,23,9.10
2023,04,26,10,24,9.10
2023,04,26,10,25,9.10
2023,04,26,10,26,9.00
2023,04,26,10,27,9.10
2023,04,26,10,28,9.10
2023,04,26,10,29,9.00
2023,04,26,10,30,9.00
2023,04,26,10,31,9.00
2023,04,26,10,32,9.00
2023,04,26,10,33,9.00
2023,04,26,10,34,9.00
2023,04,26,10,35,9.00
2023,04,26,10,36,9.00
2023,04,26,10,37,9.10
2023,04,26,10,38,9.10
2023,04,26,10,39,9.10
2023,04,26,10,40,9.10
2023,04,26,10,41,9.00
2023,04,26,10,42,8.90
2023,04,26,10,43,8.90
2023,04,26,10,44,8.90
2023,04,26,10,45,8.90
2023,04,26,10,46,9.00
2023,04,26,10,47,9.00
2023,04,26,10,48,9.00
2023,04,26,10,49,9.10
2023,04,26,10,50,9.10
2023,04,26,10,51,9.10
2023,04,26,10,52,9.10
2023,04,26,10,53,9.10
2023,04,26,10,54,9.10
2023,04,26,10,55,9.00
2023,04,26,10,56,9.00
2023,04,26,10,57,9.00
2023,04,26,10,58,9.00
2023,04,26,10,59,9.00
2023,04,26,11,00,9.00
2023,04,26,11,01,9.00
2023,04,26,11,02,8.90
2023,04,26,11,03,8.90
2023,04,26,11,04,8.90
2023,04,26,11,05,9.00
2023,04,26,11,06,9.00
2023,04,26,11,07,9.10
2023,04,26,11,08,9.10
2023,04,26,11,09,9.10
2023,04,26,11,10,9.20
2023,04,26,11,11,9.20
2023,04,26,11,12,9.20
2023,04,26,11,13,9.20
2023,04,26,11,14,9.30
2023,04,26,11,15,9.30
2023,04,26,11,16,9.30
2023,04,26,11,17,9.30
2023,04,26,11,18,9.40
2023,04,26,11,19,9.60
2023,04,26,11,20,9.70
2023,04,26,11,21,9.80
2023,04,26,11,22,10.00
2023,04,26,11,23,10.20
2023,04,26,11,24,10.30
2023,04,26,11,25,10.30
2023,04,26,11,26,10.40
2023,04,26,11,27,10.60
2023,04,26,11,28,10.70
2023,04,26,11,29,10.70
2023,04,26,11,30,10.80
2023,04,26,11,31,10.90
2023,04,26,11,32,11.10
2023,04,26,11,33,11.20
2023,04,26,11,34,11.30
2023,04,26,11,35,11.50
2023,04,26,11,36,11.60
2023,04,26,11,37,11.70
2023,04,26,11,38,11.80
2023,04,26,11,39,11.90
2023,04,26,11,40,12.00
2023,04,26,11,41,12.10
2023,04,26,11,42,12.20
2023,04,26,11,43,12.30
2023,04,26,11,44,12.40
2023,04,26,11,45,12.50
2023,04,26,11,46,12.60
2023,04,26,11,47,12.70
2023,04,26,11,48,12.80
2023,04,26,11,49,12.90
2023,04,26,11,50,12.90
2023,04,26,11,51,12.90
2023,04,26,11,52,13.00
2023,04,26,11,53,13.20
2023,04,26,11,54,13.30
2023,04,26,11,55,13.40
2023,04,26,11,56,13.60
2023,04,26,11,57,13.80
2023,04,26,11,58,13.90
2023,04,26,11,59,13.90
2023,04,26,12,00,13.70
2023,04,26,12,01,13.70
2023,04,26,12,02,13.70
2023,04,26,12,03,13.70
2023,04,26,12,04,13.70
2023,04,26,12,05,13.80
2023,04,26,12,06,13.90
2023,04,26,12,07,14.00
2023,04,26,12,08,14.00
2023,04,26,12,09,14.10
2023,04,26,12,10,14.20
2023,04,26,12,11,14.20
2023,04,26,12,12,14.30
2023,04,26,12,13,14.40
2023,04,26,12,14,14.50
2023,04,26,12,15,14.60
2023,04,26,12,16,14.70
2023,04,26,12,17,14.70
2023,04,26,12,18,14.80
2023,04,26,12,19,14.80
2023,04,26,12,20,14.90
2023,04,26,12,21,15.00
2023,04,26,12,22,15.00
2023,04,26,12,23,15.00
2023,04,26,12,24,15.00
2023,04,26,12,25,15.10
2023,04,26,12,26,15.20
2023,04,26,12,27,15.20
2023,04,26,12,28,15.30
2023,04,26,12,29,15.30
2023,04,26,12,30,15.30
2023,04,26,12,31,15.40
2023,04,26,12,32,15.40
2023,04,26,12,33,15.40
2023,04,26,12,34,15.40
2023,04,26,12,35,15.40
2023,04,26,12,36,15.40
2023,04,26,12,37,15.40
2023,04,26,12,38,15.40
2023,04,26,12,39,15.40
2023,04,26,12,40,15.50
2023,04,26,12,41,15.60
2023,04,26,12,42,15.70
2023,04,26,12,43,15.80
2023,04,26,12,44,15.90
2023,04,26,12,45,15.90
2023,04,26,12,46,15.90
2023,04,26,12,47,15.90
2023,04,26,12,48,16.00
2023,04,26,12,49,16.10
2023,04,26,12,50,16.20
2023,04,26,12,51,16.20
2023,04,26,12,52,16.20
2023,04,26,12,53,16.30
2023,04,26,12,54,16.30
2023,04,26,12,55,16.30
2023,04,26,12,56,16.30
2023,04,26,12,57,16.30
2023,04,26,12,58,16.30
2023,04,26,12,59,16.20
2023,04,26,13,00,16.20
2023,04,26,13,01,16.20
2023,04,26,13,02,16.30
2023,04,26,13,03,16.30
2023,04,26,13,04,16.30
2023,04,26,13,05,16.30
2023,04,26,13,06,16.40
2023,04,26,13,07,16.50
2023,04,26,13,08,16.70
2023,04,26,13,09,16.70
2023,04,26,13,10,16.70
2023,04,26,13,11,16.80
2023,04,26,13,12,16.80
2023,04,26,13,13,16.80
2023,04,26,13,14,16.90
2023,04,26,13,15,16.90
2023,04,26,13,16,16.90
2023,04,26,13,17,16.80
2023,04,26,13,18,16.80
2023,04,26,13,19,16.70
2023,04,26,13,20,16.70
2023,04,26,13,21,16.70
2023,04,26,13,22,16.60
2023,04,26,13,23,16.50
2023,04,26,13,24,16.50
2023,04,26,13,25,16.50
2023,04,26,13,26,16.50
2023,04,26,13,27,16.50
2023,04,26,13,28,16.40
2023,04,26,13,29,16.40
2023,04,26,13,30,16.30
2023,04,26,13,31,16.30
2023,04,26,13,32,16.30
2023,04,26,13,33,16.30
2023,04,26,13,34,16.30
2023,04,26,13,35,16.30
2023,04,26,13,36,16.30
2023,04,26,13,37,16.40
2023,04,26,13,38,16.50
2023,04,26,13,39,16.50
2023,04,26,13,40,16.60
2023,04,26,13,41,16.70
2023,04,26,13,42,16.80
2023,04,26,13,43,16.80
2023,04,26,13,44,16.80
2023,04,26,13,45,16.80
2023,04,26,13,46,16.80
2023,04,26,13,47,16.80
2023,04,26,13,48,16.70
2023,04,26,13,49,16.70
2023,04,26,13,50,16.60
2023,04,26,13,51,16.60
2023,04,26,13,52,16.60
2023,04,26,13,53,16.70
2023,04,26,13,54,16.70
2023,04,26,13,55,16.70
2023,04,26,13,56,16.70
2023,04,26,13,57,16.80
2023,04,26,13,58,16.80
2023,04,26,13,59,16.80
2023,04,26,14,00,16.90
2023,04,26,14,01,17.00
2023,04,26,14,02,17.00
2023,04,26,14,03,17.10
2023,04,26,14,04,17.20
2023,04,26,14,05,17.20
2023,04,26,14,06,17.30
2023,04,26,14,07,17.40
2023,04,26,14,08,17.40
2023,04,26,14,09,17.50
2023,04,26,14,10,17.60
2023,04,26,14,11,17.70
2023,04,26,14,12,17.70
2023,04,26,14,13,17.80
2023,04,26,14,14,17.90
2023,04,26,14,15,17.90
2023,04,26,14,16,17.90
2023,04,26,14,17,17.90
2023,04,26,14,18,17.90
2023,04,26,14,19,17.90
2023,04,26,14,20,18.00
2023,04,26,14,21,17.90
2023,04,26,14,22,17.90
2023,04,26,14,23,17.80
2023,04,26,14,24,17.90
2023,04,26,14,25,17.90
2023,04,26,14,26,17.90
2023,04,26,14,27,17.80
2023,04,26,14,28,17.70
2023,04,26,14,29,17.70
2023,04,26,14,30,17.70
2023,04,26,14,31,17.70
2023,04,26,14,32,17.70
2023,04,26,14,33,17.70
2023,04,26,14,34,17.70
2023,04,26,14,35,17.70
2023,04,26,14,36,17.70
2023,04,26,14,37,17.70
2023,04,26,14,38,17.60
2023,04,26,14,39,17.50
2023,04,26,14,40,17.50
2023,04,26,14,41,17.30
2023,04,26,14,42,17.30
2023,04,26,14,43,17.20
2023,04,26,14,44,17.30
2023,04,26,14,45,17.20
2023,04,26,14,46,17.20
2023,04,26,14,47,17.20
2023,04,26,14,48,17.20
2023,04,26,14,49,17.30
2023,04,26,14,50,17.30
2023,04,26,14,51,17.20
2023,04,26,14,52,17.10
2023,04,26,14,53,17.10
2023,04,26,14,54,17.00
2023,04,26,14,55,17.00
2023,04,26,14,56,16.90
2023,04,26,14,57,16.90
2023,04,26,14,58,16.90
2023,04,26,14,59,16.90
2023,04,26,15,00,16.90
2023,04,26,15,01,17.00
2023,04,26,15,02,17.10
2023,04,26,15,03,17.20
2023,04,26,15,04,17.20
2023,04,26,15,05,17.30
2023,04,26,15,06,17.30
2023,04,26,15,07,17.40
2023,04,26,15,08,17.50
2023,04,26,15,09,17.60
2023,04,26,15,10,17.70
2023,04,26,15,11,17.70
2023,04,26,15,12,17.70
2023,04,26,15,13,17.70
2023,04,26,15,14,17.60
2023,04,26,15,15,17.60
2023,04,26,15,16,17.60
2023,04,26,15,17,17.60
2023,04,26,15,18,17.60
2023,04,26,15,19,17.70
2023,04,26,15,20,17.70
2023,04,26,15,21,17.70
2023,04,26,15,22,17.70
2023,04,26,15,23,17.70
2023,04,26,15,24,17.70
2023,04,26,15,25,17.60
2023,04,26,15,26,17.60
2023,04,26,15,27,17.60
2023,04,26,15,28,17.60
2023,04,26,15,29,17.60
2023,04,26,15,30,17.60
2023,04,26,15,31,17.60
2023,04,26,15,32,17.60
2023,04,26,15,33,17.70
2023,04,26,15,34,17.80
2023,04,26,15,35,17.90
2023,04,26,15,36,17.80
2023,04,26,15,37,17.80
2023,04,26,15,38,17.80
2023,04,26,15,39,17.80
2023,04,26,15,40,17.80
2023,04,26,15,41,17.80
2023,04,26,15,42,17.80
2023,04,26,15,43,17.80
2023,04,26,15,44,17.80
2023,04,26,15,45,17.80
2023,04,26,15,46,17.80
2023,04,26,15,47,17.80
2023,04,26,15,48,17.70
2023,04,26,15,49,17.70
2023,04,26,15,50,17.70
2023,04,26,15,51,17.70
2023,04,26,15,52,17.70
2023,04,26,15,53,17.70
2023,04,26,15,54,17.70
2023,04,26,15,55,17.70
2023,04,26,15,56,17.70
2023,04,26,15,57,17.70
2023,04,26,15,58,17.80
2023,04,26,15,59,17.80
2023,04,26,16,00,17.80
2023,04,26,16,01,17.80
2023,04,26,16,02,17.90
2023,04,26,16,03,18.00
2023,04,26,16,04,18.00
2023,04,26,16,05,18.10
2023,04,26,16,06,18.10
2023,04,26,16,07,18.10
2023,04,26,16,08,18.10
2023,04,26,16,09,18.10
2023,04,26,16,10,18.10
2023,04,26,16,11,18.10
2023,04,26,16,12,18.10
2023,04,26,16,13,18.10
2023,04,26,16,14,18.00
2023,04,26,16,15,18.00
2023,04,26,16,16,18.00
2023,04,26,16,17,18.00
2023,04,26,16,18,18.10
2023,04,26,16,19,18.10
2023,04,26,16,20,18.10
2023,04,26,16,21,18.20
2023,04,26,16,22,18.20
2023,04,26,16,23,18.20
2023,04,26,16,24,18.20
2023,04,26,16,25,18.20
2023,04,26,16,26,18.20
2023,04,26,16,27,18.20
2023,04,26,16,28,18.20
2023,04,26,16,29,18.30
2023,04,26,16,30,18.30
2023,04,26,16,31,18.30
2023,04,26,16,32,18.40
2023,04,26,16,33,18.40
2023,04,26,16,34,18.40
2023,04,26,16,35,18.40
2023,04,26,16,36,18.40
2023,04,26,16,37,18.40
2023,04,26,16,38,18.40
2023,04,26,16,39,18.40
2023,04,26,16,40,18.40
2023,04,26,16,41,18.50
2023,04,26,16,42,18.60
2023,04,26,16,43,18.70
2023,04,26,16,44,18.70
2023,04,26,16,45,18.70
2023,04,26,16,46,18.70
2023,04,26,16,47,18.70
2023,04,26,16,48,18.70
2023,04,26,16,49,18.70
2023,04,26,16,50,18.60
2023,04,26,16,51,18.60
2023,04,26,16,52,18.60
2023,04,26,16,53,18.60
2023,04,26,16,54,18.50
2023,04,26,16,55,18.30
2023,04,26,16,56,18.20
2023,04,26,16,57,18.10
2023,04,26,16,58,18.00
2023,04,26,16,59,17.90
2023,04,26,17,00,17.90
2023,04,26,17,01,17.80
2023,04,26,17,02,17.80
2023,04,26,17,03,17.70
2023,04,26,17,04,17.50
2023,04,26,17,05,17.40
2023,04,26,17,06,17.40
2023,04,26,17,07,17.30
2023,04,26,17,08,17.20
2023,04,26,17,09,17.00
2023,04,26,17,10,17.00
2023,04,26,17,11,16.90
2023,04,26,17,12,16.80
2023,04,26,17,13,16.80
2023,04,26,17,14,16.80
2023,04,26,17,15,16.80
2023,04,26,17,16,16.70
2023,04,26,17,17,16.70
2023,04,26,17,18,16.70
2023,04,26,17,19,16.70
2023,04,26,17,20,16.60
2023,04,26,17,21,16.60
2023,04,26,17,22,16.50
2023,04,26,17,23,16.50
2023,04,26,17,24,16.40
2023,04,26,17,25,16.40
2023,04,26,17,26,16.30
2023,04,26,17,27,16.30
2023,04,26,17,28,16.20
2023,04,26,17,29,16.20
2023,04,26,17,30,16.20
2023,04,26,17,31,16.20
2023,04,26,17,32,16.30
2023,04,26,17,33,16.30
2023,04,26,17,34,16.30
2023,04,26,17,35,16.30
2023,04,26,17,36,16.30
2023,04,26,17,37,16.30
2023,04,26,17,38,16.30
2023,04,26,17,39,16.20
2023,04,26,17,40,16.20
2023,04,26,17,41,16.20
2023,04,26,17,42,16.10
2023,04,26,17,43,16.10
2023,04,26,17,44,16.10
2023,04,26,17,45,16.10
2023,04,26,17,46,16.10
2023,04,26,17,47,16.10
2023,04,26,17,48,16.00
2023,04,26,17,49,16.00
2023,04,26,17,50,16.00
2023,04,26,17,51,16.00
2023,04,26,17,52,16.00
2023,04,26,17,53,16.00
2023,04,26,17,54,16.00
2023,04,26,17,55,16.00
2023,04,26,17,56,16.00
2023,04,26,17,57,16.00
2023,04,26,17,58,16.00
